FW2123 Weather Reports


Display with metric or nautical units.
time (UTC)temp
F
wind
direction
speed
MPH
gust
MPH
rain 1hr
in
rain 24hr
in
rain mn
in
humidity
%
barometer
mb
20260510011030 62 0.0 0.0 0.00 0.00 0.00 80 1011.2
20260510010017 63 0.0 0.0 0.00 0.00 0.00 79 1011.0
20260510005022 63 0.0 0.0 0.00 0.00 0.00 78 1010.9
20260510004028 64 0.0 0.0 0.00 0.00 0.00 79 1010.8
20260510003036 65 0.0 0.0 0.00 0.00 0.00 75 1010.8
20260510002021 66 0.0 0.0 0.00 0.00 0.00 76 1010.8
20260510001027 66 0.0 0.0 0.00 0.00 0.00 76 1010.8
20260510000026 67 0.0 0.0 0.00 0.00 0.00 74 1010.6
20260509235020 69 0.0 0.0 0.00 0.00 0.00 71 1010.6
20260509234045 69 0.0 0.0 0.00 0.00 0.00 69 1010.4
20260509233025 70 0.0 0.0 0.00 0.00 0.00 69 1010.4
20260509232018 71 0.0 0.0 0.00 0.00 0.00 67 1010.4
20260509231024 72 0.0 0.0 0.00 0.00 0.00 64 1010.4
20260509230023 73 203 0.0 1.0 0.00 0.00 0.00 59 1010.4
20260509225017 74 43 1.0 2.0 0.00 0.00 0.00 57 1010.3
20260509224022 74 0.0 0.0 0.00 0.00 0.00 58 1010.5
20260509223021 74 0.0 0.0 0.00 0.00 0.00 59 1010.4
20260509222015 74 192 1.0 2.0 0.00 0.00 0.00 56 1010.4
20260509221021 74 338 0.0 2.0 0.00 0.00 0.00 59 1010.4
20260509220020 74 203 0.0 3.0 0.00 0.00 0.00 58 1010.5
20260509215019 73 193 1.0 3.0 0.00 0.00 0.00 56 1010.4
20260509214039 73 215 0.0 2.0 0.00 0.00 0.00 57 1010.4
20260509213018 74 194 3.0 6.0 0.00 0.00 0.00 58 1010.2
20260509212018 74 197 1.0 3.0 0.00 0.00 0.00 59 1010.2
20260509211017 74 189 1.0 2.0 0.00 0.00 0.00 59 1010.3
20260509210017 74 194 1.0 2.0 0.00 0.00 0.00 59 1010.1
20260509205017 75 192 1.0 5.0 0.00 0.00 0.00 58 1010.1
20260509204036 76 188 3.0 6.0 0.00 0.00 0.00 54 1010.1
20260509203015 77 197 5.0 8.0 0.00 0.00 0.00 54 1010.1
20260509202015 78 192 2.0 3.0 0.00 0.00 0.00 57 1010.1
20260509201032 77 192 3.0 5.0 0.00 0.00 0.00 56 1010.1
20260509200020 77 203 2.0 4.0 0.00 0.00 0.00 57 1010.4
20260509195026 76 199 2.0 4.0 0.00 0.00 0.00 58 1010.6
20260509194031 76 203 3.0 6.0 0.00 0.00 0.00 58 1010.8
20260509193018 76 200 3.0 6.0 0.00 0.00 0.00 59 1011.1
20260509192024 75 192 3.0 6.0 0.00 0.00 0.00 61 1011.2
20260509191029 73 209 3.0 5.0 0.00 0.00 0.00 63 1011.3
20260509190017 71 186 2.0 3.0 0.00 0.00 0.00 66 1011.6
20260509185023 70 165 1.0 2.0 0.00 0.00 0.00 67 1011.5
20260509184028 69 191 2.0 4.0 0.00 0.00 0.00 67 1011.4
20260509183015 70 209 3.0 5.0 0.00 0.00 0.00 67 1011.6
20260509182021 69 190 3.0 5.0 0.00 0.00 0.00 66 1011.7
20260509181026 69 204 3.0 4.0 0.00 0.00 0.00 67 1012.0
20260509180032 69 197 2.0 4.0 0.00 0.00 0.00 68 1012.2
20260509175019 69 201 3.0 7.0 0.00 0.00 0.00 67 1012.5
20260509174025 68 183 3.0 5.0 0.00 0.00 0.00 67 1012.7
20260509173030 69 196 2.0 5.0 0.00 0.00 0.00 68 1012.5
20260509172018 69 210 2.0 4.0 0.00 0.00 0.00 66 1012.5
20260509171023 69 207 2.0 4.0 0.00 0.00 0.00 66 1012.6
20260509170029 69 196 4.0 6.0 0.00 0.00 0.00 66 1012.6
20260509165016 69 181 2.0 6.0 0.00 0.00 0.00 67 1012.6
20260509164022 68 198 2.0 4.0 0.00 0.00 0.00 67 1012.8
20260509163028 67 189 3.0 4.0 0.00 0.00 0.00 68 1012.9
20260509162014 66 191 4.0 6.0 0.00 0.00 0.00 68 1012.9
20260509161021 67 204 2.0 4.0 0.00 0.00 0.00 66 1012.8
20260509160046 67 181 2.0 2.0 0.00 0.00 0.00 69 1012.9
20260509155031 66 193 2.0 3.0 0.00 0.00 0.00 68 1012.8
20260509154019 66 188 2.0 8.0 0.00 0.00 0.00 67 1013.0
20260509153025 66 195 3.0 6.0 0.00 0.00 0.00 66 1013.0
20260509152030 65 205 3.0 5.0 0.00 0.00 0.00 68 1013.0
20260509151017 64 212 3.0 5.0 0.00 0.00 0.00 68 1013.1
20260509150023 64 199 3.0 5.0 0.00 0.00 0.00 69 1013.2
20260509145049 63 200 3.0 5.0 0.00 0.00 0.00 69 1013.3
20260509144036 63 204 3.0 7.0 0.00 0.00 0.00 69 1013.5
20260509143021 62 176 1.0 3.0 0.00 0.00 0.00 72 1013.6
20260509142032 61 183 3.0 5.0 0.00 0.00 0.00 70 1013.6
20260509141059 61 206 3.0 4.0 0.00 0.00 0.00 71 1013.7
20260509140025 60 197 2.0 4.0 0.00 0.00 0.00 71 1013.8
20260509135030 59 196 3.0 4.0 0.00 0.00 0.00 71 1013.7
20260509134017 59 200 1.0 2.0 0.00 0.00 0.00 72 1013.7
20260509133023 59 196 1.0 3.0 0.00 0.00 0.00 71 1013.8
20260509132048 58 0.0 0.0 0.00 0.00 0.00 72 1013.8
20260509131016 57 207 2.0 3.0 0.00 0.00 0.00 72 1013.7
20260509130022 57 203 2.0 3.0 0.00 0.00 0.00 73 1013.6
20260509125027 57 196 1.0 4.0 0.00 0.00 0.00 73 1013.7
20260509124015 57 185 1.0 3.0 0.00 0.00 0.00 73 1013.7
20260509123020 56 203 2.0 3.0 0.00 0.00 0.00 73 1013.8
20260509122026 56 206 2.0 4.0 0.00 0.00 0.00 72 1013.8
20260509121025 56 199 2.0 3.0 0.00 0.00 0.00 72 1013.8
20260509120018 56 206 2.0 3.0 0.00 0.00 0.00 72 1013.8
20260509115104 56 192 2.0 3.0 0.00 0.00 0.00 72 1013.7
20260509114024 55 205 2.0 4.0 0.00 0.00 0.00 72 1013.6
20260509113017 55 200 3.0 5.0 0.00 0.00 0.00 71 1013.6
20260509112042 55 203 3.0 4.0 0.00 0.00 0.00 71 1013.5
20260509111022 55 207 3.0 5.0 0.00 0.00 0.00 72 1013.3
20260509110016 55 195 1.0 3.0 0.00 0.00 0.00 71 1013.3
20260509105021 55 195 1.0 3.0 0.00 0.00 0.00 71 1013.2
20260509104020 55 203 2.0 4.0 0.00 0.00 0.00 70 1013.3
20260509103020 55 202 2.0 3.0 0.00 0.00 0.00 70 1013.2
20260509102020 56 198 2.0 3.0 0.00 0.00 0.00 69 1013.2
20260509100030 56 200 3.0 6.0 0.00 0.00 0.00 68 1013.2
20260509095017 56 199 3.0 4.0 0.00 0.00 0.00 68 1013.1
20260509094023 56 195 4.0 6.0 0.00 0.00 0.00 68 1013.2
20260509093048 56 200 3.0 6.0 0.00 0.00 0.00 68 1013.3
20260509092016 56 196 2.0 3.0 0.00 0.00 0.00 68 1013.4
20260509091102 56 203 4.0 6.0 0.00 0.00 0.00 68 1013.5
20260509090027 56 200 3.0 6.0 0.00 0.00 0.00 68 1013.7
20260509085032 56 202 4.0 5.0 0.00 0.00 0.00 68 1013.6
20260509084020 56 197 3.0 6.0 0.00 0.00 0.00 68 1013.7
20260509083026 56 204 3.0 6.0 0.00 0.00 0.00 68 1013.7
20260509082031 55 195 3.0 4.0 0.00 0.00 0.00 68 1013.7
20260509081019 56 206 2.0 3.0 0.00 0.00 0.00 68 1013.9
20260509080024 56 199 2.0 4.0 0.00 0.00 0.00 68 1014.0
20260509075029 56 194 2.0 4.0 0.00 0.00 0.00 67 1014.0
20260509074017 56 203 2.0 3.0 0.00 0.00 0.00 67 1014.0
20260509073023 56 203 2.0 3.0 0.00 0.00 0.00 67 1014.0
20260509072028 56 193 1.0 2.0 0.00 0.00 0.00 67 1013.9
20260509071016 56 187 2.0 3.0 0.00 0.00 0.00 66 1013.8
20260509070021 57 195 3.0 4.0 0.00 0.00 0.00 66 1013.8
20260509065025 57 187 2.0 4.0 0.00 0.00 0.00 65 1013.9
20260509064019 57 203 4.0 7.0 0.00 0.00 0.00 65 1014.0
20260509063025 56 203 3.0 4.0 0.00 0.00 0.00 66 1014.1
20260509062024 56 214 2.0 5.0 0.00 0.00 0.00 66 1014.2
20260509061038 56 199 2.0 5.0 0.00 0.00 0.00 66 1014.2
20260509060022 56 202 3.0 5.0 0.00 0.00 0.00 66 1014.4
20260509055016 56 199 2.0 4.0 0.00 0.00 0.00 66 1014.4
20260509054021 56 198 2.0 4.0 0.00 0.00 0.00 65 1014.3
20260509053121 56 205 3.0 5.0 0.00 0.00 0.00 66 1014.4
20260509052020 56 198 3.0 5.0 0.00 0.00 0.00 65 1014.5
20260509051020 56 196 3.0 4.0 0.00 0.00 0.00 66 1014.5
20260509050019 56 195 3.0 5.0 0.00 0.00 0.00 65 1014.4
20260509045019 56 185 2.0 4.0 0.00 0.00 0.00 65 1014.3
20260509044019 57 207 2.0 4.0 0.00 0.00 0.00 65 1014.3
20260509043018 57 192 3.0 5.0 0.00 0.00 0.00 65 1014.4
20260509042017 57 208 3.0 5.0 0.00 0.00 0.00 65 1014.5
20260509041017 57 203 3.0 7.0 0.00 0.00 0.00 65 1014.5
20260509040017 57 200 2.0 4.0 0.00 0.00 0.00 65 1014.4
20260509035056 57 199 2.0 3.0 0.00 0.00 0.00 65 1014.5
20260509034015 57 197 2.0 4.0 0.00 0.00 0.00 65 1014.6
20260509033015 57 205 2.0 4.0 0.00 0.00 0.00 65 1014.7
20260509032026 57 0.0 0.0 0.00 0.00 0.00 65 1014.7
20260509031032 57 197 1.0 2.0 0.00 0.00 0.00 64 1014.7
20260509030019 57 201 2.0 3.0 0.00 0.00 0.00 64 1014.8
20260509025025 57 196 1.0 3.0 0.00 0.00 0.00 64 1014.8
20260509024030 57 192 1.0 2.0 0.00 0.00 0.00 64 1014.8
20260509023018 57 186 2.0 3.0 0.00 0.00 0.00 64 1014.7
20260509022023 57 203 1.0 2.0 0.00 0.00 0.00 65 1014.7
20260509021029 57 206 1.0 2.0 0.00 0.00 0.00 66 1014.6
20260509020016 57 0.0 0.0 0.00 0.00 0.00 66 1014.5
20260509015022 58 0.0 0.0 0.00 0.00 0.00 65 1014.4
20260509014028 59 0.0 0.0 0.00 0.00 0.00 63 1014.4
20260509013015 59 0.0 0.0 0.00 0.00 0.00 60 1014.4
20260509012126 60 0.0 0.0 0.00 0.00 0.00 59 1014.4